Date String (YYYY-MM-DD hh:mm:ss) UTC,Instrument flags,absolute air pressure of the measurement (hPa),sample flow rate (lpm),inlet stack bypass flow (lpm),air temperature of the measurement (°C),ambient temperature measured by the external sensor (°C),aerosol sample conditioner tube jacket temperature (°C),OPC LED temperature (°C),internal box temperature (°C),relative humidity of the measurement (%),span deviation,mass concentration of particles derived from Lorenz-Mie calculation of OPC scattering (μg/m³),mass concentration of particles derived from Lorenz-Mie calculation of OPC scattering (μg/m³),mass concentration of particles derived from Lorenz-Mie calculation of OPC scattering (μg/m³)
DateTimeUTC,F1_M11,P_M11,Q1_M11,Q2_M11,T1_M11,T2_M11,T3_M11,T4_M11,T5_M11,U1_M11,ZSPAN_M11,X2_M11,X0_M11,X1_M11
2023-08-11 14:00:00,SystemResetWarning,0831.0,5.01,000.00,029.2,025.4,000.0,037.6,030.5,22.6,0000.0,0004.02,0008.99,0003.70
2023-08-11 14:01:00,SystemResetWarning,0831.0,5.01,000.00,029.2,025.8,000.0,037.7,030.5,22.2,0000.0,0004.02,0008.80,0003.69
2023-08-11 14:02:00,SystemResetWarning,0831.1,4.99,000.00,029.2,026.2,000.0,037.7,030.6,22.7,0000.0,0004.02,0008.79,0003.68
2023-08-11 14:03:00,SystemResetWarning,0831.2,5.00,000.00,029.2,026.6,000.0,037.7,030.7,22.4,0000.0,0004.01,0007.93,0003.68
2023-08-11 14:04:00,SystemResetWarning,0831.1,5.01,000.00,029.2,026.9,000.0,037.7,030.8,22.6,0000.0,0004.02,0008.10,0003.68
2023-08-11 14:05:00,SystemResetWarning,0831.1,5.00,000.00,029.2,027.2,000.0,037.7,030.8,22.4,0000.0,0004.03,0008.36,0003.68
2023-08-11 14:06:00,SystemResetWarning,0831.1,5.00,000.00,029.2,027.5,000.0,037.8,030.9,21.7,0000.0,0004.09,0008.67,0003.71
2023-08-11 14:07:00,SystemResetWarning,0831.2,5.00,000.00,029.3,027.7,000.0,037.8,031.0,22.2,0000.0,0004.16,0008.93,0003.74
2023-08-11 14:08:00,SystemResetWarning,0831.1,5.00,000.00,029.3,027.9,000.0,037.8,031.0,22.2,0000.0,0004.22,0009.24,0003.76
2023-08-11 14:09:00,SystemResetWarning,0831.1,5.00,000.00,029.3,028.0,000.0,037.8,031.1,22.6,0000.0,0004.26,0009.21,0003.79
2023-08-11 14:10:00,SystemResetWarning,0831.1,5.00,000.00,029.4,028.1,000.0,037.8,031.1,22.7,0000.0,0004.28,0008.57,0003.82
2023-08-11 14:11:00,SystemResetWarning,0831.2,4.99,000.00,029.4,028.3,000.0,037.9,031.2,22.3,0000.0,0004.30,0008.53,0003.85
2023-08-11 14:12:00,SystemResetWarning,0831.2,4.99,000.00,029.5,028.3,000.0,037.9,031.2,22.8,0000.0,0004.34,0008.87,0003.89
2023-08-11 14:13:00,SystemResetWarning,0831.2,5.00,000.00,029.5,027.6,000.0,037.8,031.1,22.6,0000.0,0004.38,0008.99,0003.91
2023-08-11 14:14:00,SystemResetWarning,0831.2,5.00,000.00,029.4,025.8,000.0,037.7,030.7,22.6,0000.0,0004.42,0009.25,0003.93
2023-08-11 14:15:00,SystemResetWarning,0831.2,5.02,000.00,029.3,025.3,000.0,037.6,030.6,22.7,0000.0,0004.44,0009.69,0003.95
2023-08-11 14:16:00,SystemResetWarning,0831.2,5.00,000.00,029.2,025.6,000.0,037.6,030.5,22.3,0000.0,0004.47,0009.50,0003.97
2023-08-11 14:17:00,SystemResetWarning,0831.2,5.00,000.00,029.2,025.9,000.0,037.7,030.5,22.1,0000.0,0004.48,0009.45,0003.99
2023-08-11 14:18:00,SystemResetWarning,0831.2,4.99,000.00,029.2,026.3,000.0,037.7,030.6,22.3,0000.0,0004.48,0009.36,0004.01
2023-08-11 14:19:00,SystemResetWarning,0831.2,5.00,000.00,029.2,026.7,000.0,037.7,030.7,22.1,0000.0,0004.50,0009.20,0004.01
2023-08-11 14:20:00,SystemResetWarning,0831.2,5.01,000.00,029.2,027.0,000.0,037.7,030.8,22.7,0000.0,0004.51,0008.96,0004.01
2023-08-11 14:21:00,SystemResetWarning,0831.2,4.99,000.00,029.2,027.3,000.0,037.7,030.9,22.8,0000.0,0004.52,0009.07,0004.01
2023-08-11 14:22:00,SystemResetWarning,0831.2,4.99,000.00,029.2,027.5,000.0,037.7,030.9,22.0,0000.0,0004.57,0009.33,0004.01
2023-08-11 14:23:00,SystemResetWarning,0831.2,5.00,000.00,029.3,027.7,000.0,037.8,031.0,22.2,0000.0,0004.56,0009.04,0004.00
2023-08-11 14:24:00,SystemResetWarning,0831.2,5.00,000.00,029.3,027.9,000.0,037.8,031.0,22.5,0000.0,0004.53,0008.76,0004.00
2023-08-11 14:25:00,SystemResetWarning,0831.2,5.00,000.00,029.4,028.1,000.0,037.8,031.1,22.6,0000.0,0004.53,0008.66,0004.00
2023-08-11 14:26:00,SystemResetWarning,0831.2,5.00,000.00,029.4,028.2,000.0,037.8,031.1,23.0,0000.0,0004.51,0007.96,0004.00
2023-08-11 14:27:00,SystemResetWarning,0831.3,4.99,000.00,029.4,028.0,000.0,037.8,031.1,22.9,0000.0,0004.51,0007.80,0004.00
2023-08-11 14:28:00,SystemResetWarning,0831.2,4.98,000.00,029.4,026.4,000.0,037.7,030.8,22.5,0000.0,0004.49,0007.67,0003.98
2023-08-11 14:29:00,SystemResetWarning,0831.1,5.01,000.00,029.3,025.3,000.0,037.6,030.6,22.5,0000.0,0004.46,0007.53,0003.96
2023-08-11 14:30:00,SystemResetWarning,0831.1,5.01,000.00,029.3,025.5,000.0,037.5,030.6,22.8,0000.0,0004.43,0007.49,0003.95
2023-08-11 14:31:00,SystemResetWarning,0831.1,5.00,000.00,029.2,025.8,000.0,037.6,030.5,22.6,0000.0,0004.40,0007.44,0003.94
2023-08-11 14:32:00,SystemResetWarning,0831.2,5.00,000.00,029.2,026.2,000.0,037.6,030.6,24.1,0000.0,0004.41,0007.58,0003.94
2023-08-11 14:33:00,SystemResetWarning,0831.1,5.00,000.00,029.2,026.6,000.0,037.7,030.7,24.5,0000.0,0004.36,0007.81,0003.94
2023-08-11 14:34:00,SystemResetWarning,0831.1,5.00,000.00,029.2,026.9,000.0,037.7,030.8,24.5,0000.0,0004.35,0007.79,0003.93
2023-08-11 14:35:00,SystemResetWarning,0831.2,5.00,000.00,029.2,027.2,000.0,037.7,030.8,24.6,0000.0,0004.34,0007.76,0003.92
2023-08-11 14:36:00,SystemResetWarning,0831.2,5.00,000.00,029.2,027.5,000.0,037.7,030.9,25.7,0000.0,0004.31,0007.65,0003.90
2023-08-11 14:37:00,SystemResetWarning,0831.2,5.00,000.00,029.3,027.7,000.0,037.7,031.0,25.5,0000.0,0004.32,0007.78,0003.87
2023-08-11 14:38:00,SystemResetWarning,0831.2,5.00,000.00,029.3,027.9,000.0,037.7,031.0,25.6,0000.0,0004.32,0007.88,0003.85
2023-08-11 14:39:00,SystemResetWarning,0831.2,5.00,000.00,029.3,028.0,000.0,037.8,031.1,25.4,0000.0,0004.28,0007.83,0003.83
2023-08-11 14:40:00,SystemResetWarning,0831.2,5.00,000.00,029.4,028.1,000.0,037.8,031.1,24.4,0000.0,0004.24,0007.88,0003.81
2023-08-11 14:41:00,SystemResetWarning,0831.2,4.99,000.00,029.4,027.8,000.0,037.8,031.1,24.5,0000.0,0004.20,0007.80,0003.78
2023-08-11 14:42:00,SystemResetWarning,0831.1,4.99,000.00,029.4,026.2,000.0,037.6,030.8,24.8,0000.0,0004.16,0007.84,0003.75
2023-08-11 14:43:00,SystemResetWarning,0831.1,5.02,000.00,029.3,025.3,000.0,037.5,030.5,24.6,0000.0,0004.09,0007.44,0003.71
2023-08-11 14:44:00,SystemResetWarning,0831.1,5.01,000.00,029.2,025.5,000.0,037.5,030.4,25.8,0000.0,0004.06,0006.78,0003.69
2023-08-11 14:45:00,SystemResetWarning,0831.1,5.00,000.00,029.1,025.9,000.0,037.6,030.5,25.1,0000.0,0004.05,0006.81,0003.65
2023-08-11 14:46:00,SystemResetWarning,0831.1,5.00,000.00,029.1,026.3,000.0,037.6,030.6,25.2,0000.0,0004.06,0006.97,0003.62
2023-08-11 14:47:00,SystemResetWarning,0831.1,5.01,000.00,029.1,026.6,000.0,037.6,030.7,24.8,0000.0,0004.04,0007.00,0003.60
2023-08-11 14:48:00,SystemResetWarning,0831.1,5.00,000.00,029.1,027.0,000.0,037.6,030.8,24.5,0000.0,0004.01,0006.82,0003.58
2023-08-11 14:49:00,SystemResetWarning,0831.1,5.00,000.00,029.2,027.3,000.0,037.7,030.8,24.7,0000.0,0003.98,0006.67,0003.57
2023-08-11 14:50:00,SystemResetWarning,0831.1,5.00,000.00,029.2,027.5,000.0,037.7,030.9,24.1,0000.0,0003.99,0006.82,0003.56
2023-08-11 14:51:00,SystemResetWarning,0831.1,5.00,000.00,029.2,027.7,000.0,037.7,031.0,23.9,0000.0,0003.99,0006.61,0003.56
2023-08-11 14:52:00,SystemResetWarning,0831.1,5.00,000.00,029.3,027.9,000.0,037.7,031.0,24.2,0000.0,0003.99,0006.61,0003.56
2023-08-11 14:53:00,SystemResetWarning,0831.1,5.00,000.00,029.3,027.9,000.0,037.7,031.0,24.4,0000.0,0004.00,0006.60,0003.57
2023-08-11 14:54:00,SystemResetWarning,0831.1,4.98,000.00,029.3,026.5,000.0,037.6,030.8,24.1,0000.0,0004.03,0006.72,0003.57
2023-08-11 14:55:00,SystemResetWarning,0831.1,5.01,000.00,029.2,025.3,000.0,037.5,030.5,26.1,0000.0,0004.04,0006.85,0003.58
2023-08-11 14:56:00,SystemResetWarning,0831.1,5.01,000.00,029.2,025.4,000.0,037.4,030.4,27.2,0000.0,0004.04,0006.95,0003.58
2023-08-11 14:57:00,SystemResetWarning,0831.1,5.01,000.00,029.1,025.8,000.0,037.5,030.4,26.1,0000.0,0004.04,0006.93,0003.60
2023-08-11 14:58:00,SystemResetWarning,0831.2,4.99,000.00,029.1,026.1,000.0,037.5,030.5,26.5,0000.0,0004.05,0007.13,0003.62
2023-08-11 14:59:00,SystemResetWarning,0831.2,4.99,000.00,029.1,026.5,000.0,037.6,030.6,26.0,0000.0,0004.09,0007.28,0003.64
